RADUGA 2 [-]

Last updated on Nov. 12, 2019, 4:19 a.m. UTC

1 09416U 76092A   19315.05126369 -.00000005  00000-0  00000+0 0  9990
2 09416   9.4185 303.1204 0029625 328.9407 222.1040  1.00256102105160
UTC
Height (km)
Latitude
Longitude
Inclination
Orbital Period
UTC large
Height (km)
Speed (km/s)
/
Latitude / Longitude
Inclination (degrees)
Orbital Period (minutes)
Azimuth
Elevation
Range (km)
Doppler Factor
iOS Compass Heading
iOS Angle

Next 30 passes for location: Hong Kong

Rise time Rise Azimuth (degrees) Set time Set Azimuth (degrees) Duration Max altitude (degrees)

No matching passes for this satellites